Terminal Aerodrome Forecast
Issued by NWS

Home | Current Version | Previous Version | Graphics & Text | Print | Product List | Glossary On
Versions: 1 2 3 4 5 6 7 8 9 10 11 12 13 14 15
000
FTUS42 KMHX 040245 AAA
TAFOAJ
TAF AMD
KOAJ 040245Z 0403/0424 22009KT P6SM OVC008
     FM040900 22006KT P6SM BKN012
     FM041200 24014G24KT P6SM SCT050
      AMD LTD TO CLD VIS AND WIND=

USA.gov is the U.S. government's official web portal to all federal, state and local government web resources and services.